Location: Olsztyn
(53.7767°N, 20.4765°E)
Time: 11:08:37
(UTC+01:00)

SR - All Passes

Search period start: 19 January 2022 00:00
Search period end: 29 January 2022 00:00
Orbit: 582 x 872 km, 66.7° (Epoch: 18 January)

Date Brightness Start Highest point End Pass type
(mag) Time Alt. Az. Time Alt. Az. Time Alt. Az.
19 Jan - 11:08:21 10° SSE 11:11:40 22° ESE 11:15:00 10° ENE daylight
19 Jan - 12:49:04 10° SW 12:53:17 64° NW 12:57:35 10° NE daylight
19 Jan - 14:32:51 10° WNW 14:36:06 21° NNW 14:39:26 10° NNE daylight
19 Jan - 16:17:00 10° NNW 16:19:42 16° N 16:22:26 10° NE daylight
19 Jan - 17:59:16 10° NNW 18:03:06 27° NNE 18:07:08 10° E visible
19 Jan - 19:41:03 10° NW 19:45:36 84° SW 19:50:29 10° SE visible
19 Jan - 21:24:09 10° WNW 21:27:02 16° WSW 21:30:03 10° SSW visible
20 Jan - 10:20:42 10° SE 10:22:11 12° ESE 10:23:41 10° E daylight
20 Jan - 11:59:08 10° SSW 12:03:23 73° SE 12:07:40 10° NE daylight
20 Jan - 13:42:07 10° W 13:45:47 27° NNW 13:49:33 10° NNE daylight
20 Jan - 15:26:32 10° NW 15:29:12 16° N 15:31:55 10° NNE daylight
20 Jan - 17:09:25 10° NNW 17:12:48 21° NNE 17:16:18 10° ENE visible
20 Jan - 18:51:10 10° NW 18:55:38 59° NE 19:00:26 10° SE visible
20 Jan - 20:33:29 10° WNW 20:37:27 29° WSW 20:41:41 10° S visible
21 Jan - 11:09:39 10° S 11:13:36 38° ESE 11:17:36 10° NE daylight
21 Jan - 12:51:34 10° WSW 12:55:36 41° NW 12:59:44 10° NNE daylight
21 Jan - 14:35:49 10° NW 14:38:44 17° NNW 14:41:43 10° NNE daylight
21 Jan - 16:19:26 10° NNW 16:22:23 17° NNE 16:25:26 10° NE daylight
21 Jan - 18:01:22 10° NNW 18:05:34 38° NE 18:10:02 10° ESE visible
21 Jan - 19:43:17 10° NW 19:47:44 51° WSW 19:52:30 10° SSE visible
22 Jan - 10:20:49 10° SSE 10:23:59 21° ESE 10:27:11 10° ENE daylight
22 Jan - 12:01:19 10° SW 12:05:33 68° NW 12:09:52 10° NE daylight
22 Jan - 13:45:01 10° WNW 13:48:20 21° NNW 13:51:44 10° NNE daylight
22 Jan - 15:29:13 10° NW 15:31:54 16° N 15:34:40 10° NE daylight
22 Jan - 17:11:33 10° NNW 17:15:21 26° NNE 17:19:21 10° E visible
22 Jan - 18:53:19 10° NW 18:57:53 89° SW 19:02:49 10° SE visible
22 Jan - 20:36:16 10° WNW 20:39:23 18° WSW 20:42:37 10° SSW visible
23 Jan - 09:33:32 10° ESE 09:34:31 11° ESE 09:35:31 10° E daylight
23 Jan - 11:11:26 10° SSW 11:15:40 68° SE 11:19:56 10° NE daylight
23 Jan - 12:54:17 10° W 12:58:02 29° NNW 13:01:51 10° NNE daylight
23 Jan - 14:38:43 10° NW 14:41:25 16° N 14:44:11 10° NNE daylight
23 Jan - 16:21:41 10° NNW 16:25:02 20° NNE 16:28:31 10° ENE daylight
23 Jan - 18:03:27 10° NW 18:07:55 56° NE 18:12:42 10° ESE visible
23 Jan - 19:45:42 10° NW 19:49:46 31° WSW 19:54:07 10° S visible
24 Jan - 10:22:01 10° S 10:25:55 36° ESE 10:29:51 10° NE daylight
24 Jan - 12:03:47 10° WSW 12:07:51 43° NW 12:12:02 10° NE daylight
24 Jan - 13:47:59 10° WNW 13:50:57 18° NNW 13:54:00 10° NNE daylight
24 Jan - 15:31:40 10° NNW 15:34:36 17° NNE 15:37:38 10° NE daylight
24 Jan - 17:13:38 10° NNW 17:17:49 36° NE 17:22:16 10° ESE visible
24 Jan - 18:55:32 10° NW 19:00:02 55° SW 19:04:53 10° SSE visible
25 Jan - 09:33:16 10° SSE 09:36:18 19° ESE 09:39:22 10° ENE daylight
25 Jan - 11:13:34 10° SW 11:17:49 73° NW 11:22:10 10° NE daylight
25 Jan - 12:57:11 10° WNW 13:00:33 22° NNW 13:04:02 10° NNE daylight
25 Jan - 14:41:25 10° NW 14:44:07 16° N 14:46:54 10° NE daylight
25 Jan - 16:23:49 10° NNW 16:27:35 26° NNE 16:31:34 10° E daylight
25 Jan - 18:05:35 10° NW 18:10:10 87° NE 18:15:08 10° SE visible
25 Jan - 19:48:25 10° WNW 19:51:42 19° WSW 19:55:09 10° SSW visible
26 Jan - 10:23:44 10° SSW 10:27:56 63° SE 10:32:12 10° NE daylight
26 Jan - 12:06:29 10° W 12:10:15 30° NNW 12:14:09 10° NNE daylight
26 Jan - 13:50:53 10° NW 13:53:37 16° N 13:56:26 10° NNE daylight
26 Jan - 15:33:55 10° NNW 15:37:15 20° NNE 15:40:43 10° ENE daylight
26 Jan - 17:15:43 10° NW 17:20:10 53° NE 17:24:59 10° ESE visible
26 Jan - 18:57:54 10° NW 19:02:05 33° WSW 19:06:32 10° S visible
27 Jan - 09:34:23 10° S 09:38:11 33° ESE 09:42:04 10° NE daylight
27 Jan - 11:16:00 10° WSW 11:20:06 45° NW 11:24:18 10° NE daylight
27 Jan - 13:00:08 10° WNW 13:03:10 18° NNW 13:06:16 10° NNE daylight
27 Jan - 14:43:53 10° NNW 14:46:48 17° N 14:49:50 10° NE daylight
27 Jan - 16:25:54 10° NNW 16:30:03 35° NE 16:34:30 10° ESE daylight
27 Jan - 18:07:47 10° NW 18:12:19 59° SW 18:17:14 10° SSE visible
27 Jan - 19:52:14 10° W 19:53:31 11° WSW 19:54:49 10° WSW visible
28 Jan - 08:45:43 10° SSE 08:48:37 18° ESE 08:51:32 10° ENE daylight
28 Jan - 10:25:50 10° SW 10:30:04 77° NW 10:34:26 10° NE daylight
28 Jan - 12:09:20 10° WNW 12:12:46 23° NNW 12:16:18 10° NNE daylight
28 Jan - 13:53:37 10° NW 13:56:19 16° N 13:59:07 10° NE daylight
28 Jan - 15:36:04 10° NNW 15:39:49 25° NNE 15:43:46 10° E daylight
28 Jan - 17:17:50 10° NW 17:22:26 82° NE 17:27:25 10° SE visible
28 Jan - 19:00:33 10° WNW 19:04:01 20° WSW 19:07:40 10° SSW visible
